Flag for Japan Weather past 2 weeks in Suzuka, Japan

Now
67 °F

Mild.


Feels Like: 67 °F
Forecast: 54 / 73 °F
Wind: 5 mph from East

Location: Tsu

Current Time: Oct 26, 2014 at 11:05:34 AM

Latest Report: Oct 26, 2014 at 10:00 AM


Visibility: N/A

Pressure: 30.16 "Hg

Humidity: 60%

Dew point: 53 °F

Location of SuzukaLocation

Historic Weather in Suzuka — Graph

°F

Suzuka temperature yesterday

Maximum temperature yesterday: 69 °F (at 2:00 PM)
Minimum temperature yesterday: 56 °F (at 4:00 AM)
Average temperature yesterday: 62 °F

Past Weeks' High & Low Weather Summary

 TemperatureHumidityPressure
High75 °F (Oct 13, 10:00 PM)97% (Oct 21, 1:00 AM)30.37 "Hg (Oct 21, 1:00 AM)
Low51 °F (Oct 19, 6:00 AM)37% (Oct 17, 2:00 PM)29.09 "Hg (Oct 13, 10:00 PM)
Average64 °F71%30.06 "Hg
* Reported Oct 11 9:00 AM — Oct 26 9:00 AM, Suzuka, Weather by CustomWeather, © 2014

Note: Actual official high and low records may vary slightly from our data, if they occured in-between our weather recording intervals... More about our weather records

Advertising

Suzuka weather history for previous 24 hours

 ConditionsComfort  
Time TempWeatherWind HumidityBarometerVisibility
9:00 AM
Oct 26
67 °FOvercast.2 mph60%30.17 "Hg12 mi
8:00 AM65 °FMild.2 mph71%30.17 "HgN/A
7:00 AM64 °FMild.3 mph78%30.17 "HgN/A
6:00 AM64 °FMild.2 mph70%30.17 "HgN/A
5:00 AM64 °FMild.1 mph75%30.17 "HgN/A
4:00 AM64 °FMild.3 mph76%30.16 "HgN/A
3:00 AM64 °FMild.2 mph73%30.16 "HgN/A
2:00 AM64 °FMild.1 mph74%30.19 "HgN/A
1:00 AM63 °FMild.3 mph80%30.20 "HgN/A
12:00 AM63 °FMild.5 mph82%30.20 "HgN/A
11:00 PM
Oct 25
63 °FMild.3 mph80%30.20 "HgN/A
10:00 PM63 °FMild.3 mph79%30.21 "HgN/A
9:00 PM64 °FOvercast.3 mph75%30.22 "Hg9 mi
8:00 PM65 °FMild.3 mph75%30.21 "HgN/A
7:00 PM66 °FMild.3 mph72%30.21 "HgN/A
6:00 PM67 °FMild.2 mph66%30.19 "HgN/A
5:00 PM67 °FMild.3 mph64%30.19 "HgN/A
4:00 PM68 °FMild.3 mph65%30.19 "HgN/A
3:00 PM68 °FPartly sunny.5 mph64%30.18 "Hg6 mi
2:00 PM69 °FMild.7 mph60%30.18 "HgN/A
1:00 PM67 °FMild.7 mph67%30.19 "HgN/A
12:00 PM66 °FMild.3 mph68%30.21 "HgN/A
11:00 AM67 °FMild.5 mph70%30.24 "HgN/A
Weather by CustomWeather, © 2014

See weather overviewHow to use our weather pages